Find Starlink 32561

NORAD ID: 62026 Int'l Des: 2024-213 Owner: SPXS Country: US Constellation: starlink operational
LEOCIRCULAR

現在のビュー

3D地球を読み込み中...

About Starlink 32561

Starlink 32561 (NORAD 62026) is a starlink constellation satellite (v2 mini) launched Nov 18, 2024 by SPXS of US. It operates in LEO, CIRCULAR orbit with a mass of 730.00 kg.

次回通過

Passes for default location (London). Set your location on the main map for personalized predictions.

高度履歴

Loading altitude history...

軌道要素

1 62026U 24213U 26235.07568811 .00031046 00000-0 92571-3 0 9993
2 62026 53.1599 114.2622 0000386 74.9537 285.1508 15.34415966 98640
Epoch: Aug 23, 2026 • Age: 28 hours

現在のステータス

高度 475.5 km
遠地点 / 近地点 N/A
速度 7.63 km/s
衛星直下点 -39.23°S, 87.12°W
打ち上げ日 Nov 18, 2024
運用期間 1.7 years
タイプ internet

技術仕様

分類 Payload
質量 730.00 kg
乾燥質量 700.00 kg
総質量 730.00 kg
長さ 0.30 m
直径 4.10 m
スパン 29.00 m
形状 Box + pan
製造者 SPXS
バスタイプ Starlink V2M
フェーズステータス In Orbit
所有者/国 SPXS/US

Most Searched